This is the latest recevied weather packets stored in our database for station/object AG7BI. If no packets are shown the sender has not sent any weather packets the latest 10 day(s).
| Time | Temp. | Humidity | Pressure | Rain* | Wind** | Luminosity | Snow |
|---|---|---|---|---|---|---|---|
| 1777775152 | 18.33° C | 50% | 1013.5 hPa | 0 mm | - | - | - |
| 1777774852 | 18.33° C | 50% | 1013.4 hPa | 0 mm | - | - | - |
| 1777774552 | 18.33° C | 51% | 1013.4 hPa | 0 mm | - | - | - |
| 1777774252 | 18.33° C | 52% | 1013.4 hPa | 0 mm | - | - | - |
| 1777773952 | 18.89° C | 51% | 1013.3 hPa | 0 mm | - | - | - |
| 1777773652 | 18.33° C | 50% | 1013.5 hPa | 0 mm | - | - | - |
| 1777773352 | 18.33° C | 52% | 1013.5 hPa | 0 mm | - | - | - |
| 1777773052 | 18.33° C | 51% | 1013.6 hPa | 0 mm | - | - | - |
| 1777772752 | 18.33° C | 52% | 1013.8 hPa | 0 mm | - | - | - |
| 1777772452 | 18.33° C | 53% | 1013.6 hPa | 0 mm | - | - | - |
| 1777772152 | 18.89° C | 52% | 1013.6 hPa | 0 mm | - | - | - |
| 1777771852 | 18.89° C | 51% | 1013.6 hPa | 0 mm | - | - | - |
| 1777771552 | 18.89° C | 50% | 1013.8 hPa | 0 mm | - | - | - |
| 1777771252 | 18.89° C | 52% | 1013.8 hPa | 0 mm | - | - | - |
| 1777770952 | 18.89° C | 50% | 1013.7 hPa | 0 mm | - | - | - |
| 1777770652 | 18.89° C | 48% | 1013.7 hPa | 0 mm | - | - | - |
| 1777770352 | 18.89° C | 48% | 1013.5 hPa | 0 mm | - | - | - |
| 1777770052 | 19.44° C | 49% | 1013.6 hPa | 0 mm | - | - | - |
| 1777769752 | 19.44° C | 48% | 1013.6 hPa | 0 mm | - | - | - |
| 1777769452 | 19.44° C | 46% | 1013.8 hPa | 0 mm | - | - | - |
| 1777769152 | 19.44° C | 48% | 1014 hPa | 0 mm | - | - | - |
| 1777768852 | 19.44° C | 51% | 1013.8 hPa | 0 mm | - | - | - |
| 1777768552 | 19.44° C | 48% | 1013.8 hPa | 0 mm | - | - | - |
| 1777768252 | 19.44° C | 49% | 1013.8 hPa | 0 mm | - | - | - |
| 1777767952 | 19.44° C | 50% | 1014 hPa | 0 mm | - | - | - |
* Rain latest hour (hover to see other rain measurements)
** Current wind speed in m/s (hover to see current wind gust speed)